Weather WX

World > North America > United States > Minnesota

Stokes, Minnesota Regional Weather

Lat: 47.77N, Lon: 93.71W
Wx Zone: MNZ018
Warning FLW WEATHER ALERT - (More Info. Click Here) Warning
Feedback

Stokes, MN Regional Weather

Expires:201906182200;;698941
ASUS43 KMPX 182110
RWRMN 
WEATHER ROUNDUP FOR MINNESOTA
NATIONAL WEATHER SERVICE TWIN CITIES/CHANHASSEN MN
400 PM CDT TUE JUN 18 2019


NOTE: "FAIR" INDICATES FEW OR NO CLOUDS BELOW 12,000 FEET WITH NO
SIGNIFICANT WEATHER AND/OR OBSTRUCTIONS TO VISIBILITY. N/A MEANS
CURRENT SKY AND/OR WEATHER CONDITIONS ARE NOT AVAILABLE.


MNZ006-009>011-018-025>026-182200-
   North Central Minnesota   
  
CITY           SKY/WX    TMP DP  RH WIND       PRES   REMARKS
BAUDETTE       CLOUDY    70  49  47 VRB3      29.96F                  
FLAG ISLAND      N/A     70  55  60 CALM      29.94F                  
INTL FALLS     FAIR      71  49  45 VRB6      29.94F                  
WASKISH        PTSUNNY   66  50  55 N7        29.95S                  
BIG FORK       FAIR      66  52  59 N3        29.99F                  
LONGVILLE      FAIR      70  54  56 CALM      29.94F                  
GRAND RAPIDS   PTSUNNY   67  52  58 N9        29.95F                  
CRANE LAKE     FAIR      70  46  43 NE3       29.95F                  
ORR            FAIR      66  48  52 NW5       29.92F                  
COOK           FAIR      70  52  52 N7        29.93F                  
WALKER         MOCLDY   N/A N/A N/A NW6       29.94F                  
$$

SKY/WX - Weather  TMP - Temperature  DP - Dew Point  RH - Relative Humidity
WIND - Wind Direction/Speed PRES - Barometric Pressure VSB - Visibility
WCI - Wind Chill Index E13G22 Wind - East Wind 13 mph/Gusts of 22 mph